• MPC Preparation (Info)

  • MPEC 2023-J93 : 2023 JQ

    The following Minor Planet Electronic Circular may be linked-to from your own Web pages, but must not otherwise be redistributed electronically.

    A form allowing access to any MPEC is at the bottom of this page.


    Read MPEC 2023-J92 Read MPEC 2023-J94


    M.P.E.C. 2023-J93                                  Issued 2023 May 10, 23:30 UT
    
         The Minor Planet Electronic Circulars contain information on unusual
             minor planets, routine data on comets and natural satellites,
             and occasional editorial announcements.  They are published
        on behalf of Division F of the International Astronomical Union by the
              Minor Planet Center, Smithsonian Astrophysical Observatory,
                              Cambridge, MA 02138, U.S.A.
    			  
                 Prepared using the Tamkin Foundation Computer Network
    
                                  MPC@CFA.HARVARD.EDU
                URL https://www.minorplanetcenter.net/    ISSN 1523-6714
    
                                     2023 JQ                                 
    
    
    Observations:
         K23J00Q*1C2023 05 10.28488613 15 20.970+01 34 43.54               VEJ093703
         K23J00Q 1C2023 05 10.28733613 15 48.154+01 39 50.18         17.19GVEJ093703
         K23J00Q 1C2023 05 10.28855813 16 01.664+01 42 18.50         17.48GVEJ093703
         K23J00Q 1C2023 05 10.30451613 19 01.300+02 15 46.90         17.41GVEJ093703
         K23J00Q 1C2023 05 10.30573913 19 15.260+02 18 21.60               VEJ093703
         K23J00Q KC2023 05 10.30580413 19 16.255+02 18 30.82         17.44GVEJ093I52
         K23J00Q KC2023 05 10.30631413 19 22.098+02 19 35.72         17.48GVEJ093I52
         K23J00Q KC2023 05 10.30682213 19 27.880+02 20 40.42         17.63GVEJ093I52
         K23J00Q KC2023 05 10.30733413 19 33.712+02 21 45.07         17.44GVEJ093I52
         K23J00Q 1C2023 05 10.30819313 19 43.450+02 23 32.80         19.03GVEJ093703
         K23J00Q KB2023 05 10.86632 15 51 30.62 +24 35 21.2          17.4 GXEJ093K19
         K23J00Q KB2023 05 10.86878 15 52 15.12 +24 40 30.9          17.4 GXEJ093K19
         K23J00Q KB2023 05 10.90638 16 03 32.07 +25 56 08.2          17.0 GXEJ093K19
         K23J00Q KB2023 05 10.90766 16 03 54.97 +25 58 36.6          17.1 GXEJ093K19
         K23J00Q KB2023 05 10.90891 16 04 17.42 +26 01 02.2          17.1 GXEJ093K19
         K23J00Q KC2023 05 10.93547916 12 12.449+26 45 26.78         17.5 GVEJ093J95
         K23J00Q KC2023 05 10.93587116 12 19.416+26 46 09.55         16.8 GVEJ093J95
         K23J00Q KC2023 05 10.93630216 12 27.120+26 46 56.39         17.1 GVEJ093J95
         K23J00Q KC2023 05 10.93674616 12 35.030+26 47 45.06         16.9 GVEJ093J95
         K23J00Q KC2023 05 10.93713516 12 41.978+26 48 27.29         17.0 GVEJ093J95
         K23J00Q KC2023 05 10.93770116 12 52.056+26 49 29.21         17.3 GVEJ093J95
         K23J00Q KC2023 05 10.94461616 15 02.58 +27 06 13.3          17.4 GXEJ093I93
         K23J00Q KC2023 05 10.94584416 15 24.31 +27 08 24.8          17.1 GXEJ093I93
         K23J00Q KC2023 05 10.94699616 15 44.67 +27 10 27.7          17.2 GXEJ093I93
         K23J00Q KC2023 05 10.94813216 16 04.74 +27 12 28.7          17.2 GXEJ093I93
         K23J00Q KC2023 05 10.94940016 16 27.16 +27 14 43.4          17.5 GXEJ093I93
         K23J00Q KC2023 05 10.95199716 17 15.57 +27 19 43.1          18.0 GXEJ093958
         K23J00Q KC2023 05 10.95321516 17 37.02 +27 21 51.6          17.8 GXEJ093958
         K23J00Q KC2023 05 10.95441116 17 58.11 +27 23 56.8          17.8 GXEJ093958
    
    Observer details:
    703 Catalina Sky Survey.  Observer J. K. Hogan.  Measurers E. J. Christensen,
        D. Fay, J. B. Fazekas, D. C. Fuls, A. R. Gibbs, A. D. Grauer, H. Groeller,
        J. K. Hogan, R. A. Kowalski, S. M. Larson, G. J. Leonard, D. Rankin, R. L.
        Seaman, A. Serrano, F. C. Shelly, K. W. Wierzchos.  0.68-m Schmidt + 10K
        CCD.
    958 Observatoire de Dax.  Observers P. Dupouy, J. B. de Vanssay.  Measurer P.
        Dupouy.  0.43-m f/2.7 Reflector + CCD.
    I52 Steward Observatory, Mt. Lemmon Station.  Observer R. A. Kowalski.
        Measurers E. J. Christensen, D. Fay, J. B. Fazekas, D. C. Fuls, A. R.
        Gibbs, A. D. Grauer, H. Groeller, J. K. Hogan, R. A. Kowalski, S. M.
        Larson, G. J. Leonard, D. Rankin, R. L. Seaman, A. Serrano, F. C. Shelly,
        K. W. Wierzchos.  1.0-m prime focus + CCD.
    I93 St Pardon de Conques.  Observer F. Losse.  0.40-m f/3.7 reflector + CCD.
    J95 Great Shefford.  Observer P. Birtwhistle.  0.41-m f/6.3 Schmidt-Cassegrain
        + CCD.
    K19 PASTIS Observatory, Banon.  Observer C. Demeautis.  0.28-m f/2.2 reflector
        + CMO.
    
    Orbital elements:
    2023 JQ                                                  Earth MOID = 0.0035 AU
    Epoch 2023 Feb. 25.0 TT = JDT 2460000.5                 Veres                   
    M 331.32368              (2000.0)            P               Q                  
    n   0.34738495     Peri.   10.04854     -0.52038883     +0.84628232             
    a   2.0041431      Node   228.69497     -0.79362297     -0.52859658             
    e   0.4969553      Incl.    8.73063     -0.31521111     -0.06627140             
    P   2.84           H   28.14          G   0.15           U   8                  
    Residuals in seconds of arc
    230510 703  0.6-  1.8-    230510 K19  0.0   0.4-    230510 J95  0.2-  0.2+
    230510 703  0.5-  0.6+    230510 K19  0.0   1.2+    230510 I93  0.6+  0.3+
    230510 703  1.8-  3.3-    230510 K19  0.6+  0.3+    230510 I93  0.7+  0.3+
    230510 703  2.4-  1.3-    230510 K19  0.3+  0.0     230510 I93  0.5+  0.2+
    230510 703  2.1-  1.8-    230510 K19  1.3+  0.8+    230510 I93  0.4+  0.3+
    230510 I52  0.1-  0.0     230510 J95  0.2-  0.0     230510 I93  0.7+  0.4+
    230510 I52  0.4+  0.1+    230510 J95  0.3-  0.0     230510 958  0.6+  0.3-
    230510 I52  0.1+  0.3+    230510 J95  0.3-  0.3-    230510 958  0.2+  0.0
    230510 I52  0.3-  0.3-    230510 J95  0.3-  0.1+    230510 958  0.4+  0.4-
    230510 703 (0.1+  2.8-)   230510 J95  0.1-  0.1-
    
    Ephemeris:
    2023 JQ                  a,e,i = 2.00, 0.50, 9                   q = 1.0082
    Date    TT    R. A. (2000) Decl.     Delta      r    Elong.  Phase     V
    2023 04 10    10 03 21.0 -28 06 04   0.1519  1.1072   131.0    43.0    25.9
    ...
    2023 04 25    09 57 22.6 -27 41 51   0.07801 1.0470   120.1    56.3    24.7
    ...
    2023 05 03    10 05 52.3 -26 32 43   0.03860 1.0254   116.1    61.9    23.3
    ...
    2023 05 09    11 12 03.7 -18 30 45   0.0092641.0147   125.6    53.9    20.0
    2023 05 10    12 29 33.4 -06 16 03   0.0050241.0134   140.4    39.4    18.2
    2023 05 11    16 30 13.5 +28 48 41   0.0038261.0122   129.6    50.3    17.9
    ...
    2023 05 17    21 19 59.9 +30 27 53   0.03149 1.0078    83.1    95.2    24.0
    ...
    2023 05 25    21 36 10.7 +29 16 23   0.07054 1.0101    85.9    90.1    25.6
    ...
    2023 06 09    21 42 39.3 +28 39 35   0.1401  1.0387    95.8    76.4    26.6
    
    M. P. C. Staff               (C) Copyright 2023 MPC           M.P.E.C. 2023-J93
    


    Read MPEC 2023-J92 Read MPEC 2023-J94


    MPEC number:

    Enter an MPEC number in one of the following forms:

    • 1997-B01 (the full form)
    • J97B01 (the packed version of the full form)
    • B01 (the abbreviated form)